Theta_e
319 318 317 318 318 317 318 318 318 318 318 318 317 316 316 318 320 319 320 319 321 320 319 317 315 318 307 295 294 304 314 312 308 306 301 299 295 292 289 290 290 287 290 294 295 294 293
319 319 318 318 318 317 316 317 317 316 317 316 316 314 315 318 319 320 320 319 318 319 319 317 318 317 301 288 303 304 305 305 305 303 299 298 295 294 290 289 287 289 289 289 292 292 292
319 319 319 318 318 318 318 316 316 317 317 316 315 315 314 318 319 321 320 319 319 318 318 317 317 305 297 293 302 303 306 303 304 303 298 300 300 294 292 289 291 289 285 288 289 291 291
319 319 318 318 318 317 317 317 316 314 316 315 314 315 317 317 320 321 321 321 319 318 318 317 317 301 293 306 305 304 304 304 305 304 303 301 302 296 293 291 290 287 285 281 288 291 293
318 318 317 317 318 317 317 317 317 316 313 314 314 317 319 320 321 319 318 317 318 316 315 315 305 298 291 309 300 302 303 302 303 303 303 304 301 294 294 287 284 286 279 282 285 292 291
317 317 316 316 317 317 317 316 316 317 316 315 316 318 317 317 317 317 318 318 317 313 309 306 303 294 297 294 300 302 303 304 300 300 300 298 295 288 286 282 276 277 277 281 282 289 289
317 316 316 316 316 316 316 316 316 316 316 317 317 316 316 316 315 315 311 305 298 296 298 293 293 293 296 300 303 302 304 301 300 295 288 292 282 277 282 286 286 285 283 283 287 293 289
315 315 316 316 316 316 316 315 316 315 315 315 315 314 314 315 315 314 308 299 299 299 292 300 299 298 301 302 297 301 305 296 296 287 291 286 280 288 292 291 289 286 283 284 289 292 290
315 315 315 315 315 315 316 315 315 315 315 314 315 315 314 313 314 307 303 301 305 303 292 297 300 299 299 302 296 297 301 298 293 290 290 284 288 293 292 290 289 287 284 284 283 289 289
315 315 314 315 315 315 316 315 314 313 313 313 313 314 315 314 304 305 300 306 305 303 282 289 295 298 301 301 295 303 303 298 294 289 290 288 292 291 289 290 290 284 290 289 288 287 275
314 314 314 314 315 315 315 315 314 313 312 312 312 312 314 314 301 299 303 305 303 298 270 291 295 304 302 297 297 299 304 300 290 291 289 286 288 289 289 291 292 288 293 289 287 282 284
313 313 314 314 314 314 314 315 314 313 312 313 312 313 312 306 303 303 305 303 300 280 269 284 295 295 295 297 298 300 300 301 300 294 292 291 295 292 292 294 293 294 290 288 286 287 274
314 312 313 313 313 313 314 314 314 314 312 311 311 312 308 307 300 305 304 298 281 273 288 286 288 294 293 292 295 296 295 292 287 279 279 289 291 293 294 290 293 290 279 272 273 272 273
315 315 312 312 312 313 313 313 313 313 313 312 311 311 309 306 305 304 300 286 274 285 284 292 292 292 288 291 292 293 291 288 292 290 280 278 277 289 293 291 286 286 282 276 269 271 274
315 315 314 312 312 312 312 313 313 314 313 311 310 303 302 302 305 301 293 279 280 285 291 290 291 286 286 291 289 289 287 287 289 290 281 281 282 293 293 295 293 288 281 288 278 280 280
313 314 314 314 314 313 312 312 313 313 312 311 298 298 300 303 303 300 287 284 284 293 293 292 284 287 283 286 286 285 286 289 291 292 292 287 279 290 293 294 293 290 292 279 281 272 272
311 312 314 313 313 313 312 312 312 312 312 309 299 294 302 304 301 295 282 282 291 295 295 291 288 286 286 285 285 284 285 290 292 292 291 289 285 284 290 287 287 287 285 287 284 281 274
313 311 311 313 312 312 312 311 311 311 311 304 296 290 303 302 292 289 286 290 296 293 294 293 292 290 287 287 285 285 285 288 294 293 287 290 285 277 284 290 292 290 287 285 276 277 279
314 313 311 311 313 312 311 311 311 310 309 296 291 291 301 299 284 284 289 292 294 293 293 292 291 292 291 287 283 286 287 294 295 292 288 289 282 274 278 283 287 284 286 286 284 281 276
315 313 312 311 312 312 311 311 311 311 310 298 292 285 292 293 291 287 286 288 289 294 293 293 292 292 289 286 288 286 286 293 294 294 298 294 284 280 274 279 284 282 285 286 283 275 277
316 314 313 312 310 311 312 310 311 311 310 300 291 287 289 284 288 287 288 288 288 288 292 293 290 290 288 284 284 285 287 288 292 296 292 289 281 281 284 286 286 285 285 285 282 284 279
316 316 314 313 312 310 311 311 310 310 309 296 291 289 289 286 289 286 287 284 288 289 291 289 288 290 289 285 285 284 286 284 285 288 288 289 281 282 280 285 284 282 284 285 285 285 285
316 316 315 314 313 311 310 310 311 310 306 295 295 295 291 288 286 284 284 287 289 290 291 292 291 288 287 289 290 289 290 289 288 287 286 285 282 279 276 281 282 277 282 284 283 285 286
315 316 316 315 314 312 310 309 310 310 306 298 296 294 289 285 285 286 288 289 289 289 288 291 291 288 290 294 293 290 288 289 288 288 288 284 282 281 277 278 271 282 286 286 285 286 288
315 315 315 316 315 313 311 309 309 310 309 300 298 297 292 285 287 289 289 288 288 288 288 290 292 293 294 290 285 282 281 283 285 286 286 286 283 279 276 274 279 282 283 283 282 282 288
314 314 314 314 314 314 312 311 309 309 309 301 300 301 295 288 287 290 288 287 284 283 285 290 294 295 292 288 284 278 276 279 278 280 286 286 285 281 278 275 274 279 283 287 285 277 285
314 314 314 313 313 314 313 312 310 309 309 303 301 301 297 291 294 291 288 287 289 286 284 287 289 289 292 285 281 278 278 282 277 277 277 280 283 279 280 276 280 287 287 287 276 281 287
313 313 312 312 312 312 313 313 311 310 309 304 300 301 297 293 294 297 294 291 291 290 285 289 287 288 287 283 282 281 279 282 280 281 280 279 277 278 281 277 274 288 286 281 284 285 286
313 312 311 310 311 312 312 312 313 311 309 306 298 299 299 294 293 298 298 299 298 296 293 291 288 289 290 284 284 283 282 281 281 278 283 279 284 281 282 282 288 288 288 290 288 286 287
Wind_Speed
30 27 25 25 23 22 23 23 23 22 21 20 20 17 19 17 22 20 18 16 18 15 13 8 4 7 5 10 5 7 14 15 9 7 9 3 5 4 4 5 1 2 4 2 1 1 1
28 27 27 26 26 20 21 21 19 19 18 18 19 16 16 16 19 25 19 17 11 12 10 6 7 6 7 12 7 4 7 9 12 8 9 8 3 3 4 3 3 3 4 6 4 3 1
28 28 29 26 26 26 24 16 16 16 16 18 18 15 13 16 17 25 23 16 9 10 6 6 9 10 18 7 3 6 4 4 5 6 4 5 5 5 2 3 3 3 5 5 3 2 1
28 28 30 28 27 26 25 22 12 12 14 18 16 15 14 13 17 22 19 14 10 7 2 1 5 8 7 5 5 9 7 5 5 4 2 4 5 5 4 1 1 2 2 5 2 2 1
27 29 29 30 30 28 26 27 25 12 14 18 15 16 14 19 24 21 17 14 7 5 4 4 6 8 4 3 4 5 4 4 2 2 3 1 4 3 3 3 5 6 2 3 6 3 0
25 27 27 28 28 27 28 27 25 24 18 16 17 18 27 21 16 15 12 8 9 3 4 1 3 8 5 1 3 5 4 3 2 4 4 7 6 5 6 7 2 3 4 5 5 4 2
23 24 25 26 26 26 27 26 24 23 26 22 23 18 14 12 9 7 5 4 6 9 13 8 4 8 2 3 3 4 3 5 1 5 4 5 9 3 2 3 2 3 1 5 6 1 7
22 22 24 25 24 24 24 24 22 19 20 18 14 12 13 12 14 8 5 6 2 4 6 9 8 5 1 2 2 11 8 5 6 4 2 7 4 1 0 1 1 3 3 6 7 7 9
20 21 22 23 23 23 23 22 21 18 18 16 13 13 12 11 11 9 6 4 2 3 7 3 3 3 4 5 4 6 6 4 4 5 5 6 3 3 2 3 4 2 1 2 5 7 4
18 19 21 21 22 22 21 20 19 18 18 18 16 14 13 11 7 2 4 4 5 2 7 9 5 4 3 3 3 2 3 2 3 2 3 3 2 1 3 2 4 3 1 2 6 8 4
16 17 18 19 19 20 20 19 16 14 14 13 13 13 13 9 2 4 1 4 6 3 8 6 4 1 3 2 2 2 1 4 3 2 4 3 2 2 3 1 2 6 4 3 2 1 4
15 15 15 16 17 18 18 18 17 14 13 10 9 11 11 6 4 2 3 3 3 9 1 5 3 3 2 3 2 3 2 3 2 2 0 4 2 2 2 3 3 5 4 3 1 1 2
14 14 15 15 15 16 16 17 16 15 14 12 12 9 5 1 2 3 2 3 7 8 4 1 1 2 3 2 1 2 2 2 2 5 5 5 3 3 2 2 4 7 6 4 5 3 6
14 13 13 14 16 15 15 15 15 15 13 11 9 7 1 1 2 3 3 6 10 2 2 3 3 4 1 2 2 2 1 1 1 3 1 3 7 5 4 4 4 2 5 3 3 3 6
14 14 12 12 13 15 17 17 17 15 14 14 7 1 1 2 2 2 5 7 8 5 3 3 1 2 2 2 2 1 2 3 2 2 2 3 5 2 4 3 5 2 0 3 2 3 3
12 13 13 13 12 13 14 16 17 17 15 10 2 2 3 2 3 4 7 3 2 1 1 2 2 1 2 1 1 2 3 2 4 2 3 2 4 4 2 1 4 3 1 2 2 3 6
11 11 13 14 13 11 12 15 17 17 18 2 4 4 3 3 3 6 5 1 2 1 3 3 3 1 2 1 1 2 2 2 2 3 1 1 3 7 4 5 7 2 2 3 2 3 3
11 11 11 12 13 13 12 13 15 16 17 5 2 3 3 3 5 2 2 2 1 2 1 2 1 2 2 3 2 2 1 1 5 5 2 4 3 5 10 3 5 5 6 6 5 4 2
8 11 10 11 11 13 12 13 16 16 12 2 2 2 3 4 3 2 2 2 1 4 3 2 2 2 3 2 2 3 1 3 5 3 1 1 2 5 8 5 4 2 4 5 4 3 6
6 7 9 9 10 10 12 13 14 16 13 2 3 3 5 4 2 4 1 2 2 0 2 1 1 2 2 2 4 3 2 3 7 6 6 3 3 7 8 5 2 5 5 5 6 4 4
7 6 7 8 8 10 11 12 15 17 17 2 3 2 4 2 3 2 0 1 2 2 2 1 3 5 6 3 2 5 4 2 2 5 4 5 5 4 9 14 13 17 18 15 16 13 11
8 7 5 7 8 8 9 11 14 17 19 5 3 2 4 3 1 1 1 3 5 3 6 4 4 1 4 6 5 4 1 3 6 3 6 3 5 4 8 12 9 15 17 18 20 22 23
9 7 7 5 6 7 7 8 11 15 10 3 2 2 4 4 1 2 4 3 1 2 3 4 7 2 5 7 4 4 5 5 6 7 6 5 3 4 7 7 12 10 10 14 7 7 22
8 8 8 7 6 5 6 7 8 9 8 1 1 2 3 4 2 5 2 3 3 3 4 1 3 4 3 3 5 5 7 10 8 9 7 3 5 2 7 7 4 7 3 6 14 11 17
7 7 7 8 7 6 6 6 6 5 7 2 2 2 2 3 3 6 5 5 3 4 5 6 5 5 3 3 4 7 5 4 3 5 6 6 4 3 4 3 13 9 1 5 7 9 16
7 7 7 7 9 8 7 7 6 5 3 1 1 1 2 1 5 2 2 2 3 3 5 4 4 2 3 3 2 3 4 5 2 1 5 5 4 5 1 3 7 4 1 1 2 8 7
7 8 9 7 8 9 9 9 8 7 4 1 2 2 1 2 4 3 4 4 3 1 3 1 2 1 2 2 3 5 6 4 4 6 5 3 4 12 11 7 13 11 6 1 1 9 5
7 8 8 9 10 8 8 10 10 10 8 4 2 1 3 3 6 4 3 4 1 2 3 3 3 1 2 3 4 5 5 6 2 6 8 10 9 6 8 8 14 8 4 8 8 4 3
9 7 8 10 11 10 9 10 11 12 11 8 2 0 1 2 6 2 5 6 7 4 3 3 4 3 5 3 3 2 3 2 5 5 4 4 11 9 15 15 6 9 8 11 3 4 4
Wind_Direction
36 43 34 29 28 37 45 49 69 71 79 81 82 76 82 104 119 108 96 85 81 96 98 100 60 347 55 62 58 340 6 8 3 36 31 18 55 18 101 114 25 17 353 4 333 80 229
33 35 28 36 37 47 42 50 59 69 74 70 77 71 78 97 126 118 98 105 95 92 84 53 1 324 66 80 277 6 24 16 19 34 23 31 25 318 83 68 83 300 314 283 267 147 246
31 31 31 44 42 46 47 55 58 73 77 67 59 64 72 91 115 122 120 123 109 92 82 73 73 84 62 99 334 333 63 42 26 37 41 4 340 75 336 96 295 290 322 327 6 25 230
36 34 35 41 44 47 43 46 66 77 78 68 56 58 60 81 111 123 129 122 108 91 115 10 23 65 75 302 327 27 4 24 51 27 87 335 353 78 65 252 281 339 47 29 291 158 208
38 34 34 35 37 49 51 51 51 72 82 77 74 57 74 103 105 107 124 128 113 149 256 272 52 93 70 303 21 331 29 348 335 5 336 275 56 85 17 52 21 4 325 346 326 247 275
38 37 32 33 36 44 47 51 54 56 82 82 73 69 69 77 96 122 113 117 147 40 335 41 96 67 6 11 293 304 323 313 309 326 2 28 47 65 22 44 179 320 349 331 282 321 283
37 34 33 32 35 38 41 46 60 62 68 74 78 66 61 58 50 40 29 18 29 20 44 82 91 87 108 269 286 338 304 325 239 34 63 15 63 86 64 62 128 134 263 283 268 46 357
41 35 34 36 33 34 40 44 56 67 67 61 46 45 40 30 29 38 45 64 41 152 61 59 77 66 105 332 357 358 349 57 47 55 46 30 78 108 340 246 264 244 271 291 297 358 333
41 37 35 38 38 34 33 43 50 37 34 33 26 25 21 7 356 54 83 83 301 9 85 16 71 46 305 2 39 347 21 345 58 42 31 123 171 166 273 311 282 313 202 334 250 305 281
34 39 37 37 40 40 36 36 42 46 34 25 18 11 358 333 38 357 37 347 344 36 78 334 1 17 314 349 23 321 359 104 50 76 19 90 189 288 316 281 26 297 176 286 309 338 294
29 33 38 34 38 39 39 37 35 37 41 34 16 359 343 360 128 60 21 348 299 67 62 294 323 301 273 102 251 347 86 24 83 35 83 260 173 251 277 29 27 243 349 296 277 354 327
29 27 30 35 33 34 34 35 32 27 20 18 13 360 346 10 33 346 337 310 48 44 277 324 272 286 231 219 214 145 31 33 34 335 257 240 93 161 242 273 224 270 345 354 106 54 328
28 26 23 23 29 28 27 25 24 25 14 1 353 356 17 348 241 303 343 45 45 87 248 292 253 297 326 33 187 218 160 8 86 49 354 329 223 187 184 8 334 31 41 355 0 357 229
28 26 23 19 13 16 16 14 13 8 3 350 330 321 280 149 289 346 67 58 74 237 196 207 228 294 95 21 253 278 315 107 327 85 87 94 327 190 173 166 187 254 133 138 220 305 283
23 25 28 21 17 8 4 1 359 356 354 348 340 351 125 276 258 131 82 53 179 199 194 191 163 266 240 241 208 299 160 143 129 74 122 11 287 96 190 148 134 197 348 212 116 256 290
21 19 23 22 14 12 6 359 353 348 346 352 55 30 287 297 357 57 69 115 146 29 77 74 187 235 58 271 165 3 184 211 153 136 117 293 315 253 149 105 265 181 262 36 360 8 302
11 17 14 17 18 15 13 3 356 349 346 44 48 38 271 23 48 48 95 97 90 354 23 357 358 309 270 233 215 259 227 199 131 170 114 273 120 294 104 197 181 131 275 231 177 162 193
358 7 11 10 10 10 9 9 1 358 350 50 89 39 284 55 47 62 91 126 103 153 130 300 345 315 324 356 319 292 280 82 150 139 224 214 171 258 229 267 155 167 192 164 125 283 271
350 351 6 3 5 2 5 5 1 1 16 62 69 242 323 79 77 22 297 52 358 154 208 218 251 209 22 345 346 258 19 167 137 125 290 101 284 330 347 355 352 181 222 193 122 88 212
346 339 348 360 356 2 358 355 354 352 1 76 70 29 327 34 154 127 139 192 193 97 290 187 240 90 26 273 206 261 325 183 185 172 141 93 239 198 205 212 99 237 208 199 173 170 209
334 329 333 345 354 355 356 352 348 347 349 90 40 262 184 305 329 45 106 214 185 247 262 253 292 215 178 238 277 212 227 218 202 167 148 147 246 232 257 265 266 263 254 234 220 220 209
325 320 314 322 336 349 354 351 348 347 344 68 98 90 358 283 304 325 210 220 203 211 156 245 221 292 230 228 216 237 74 200 231 211 171 198 272 313 278 261 262 265 254 242 237 236 241
317 320 320 298 307 330 343 354 350 354 1 63 316 2 99 273 295 93 234 235 160 117 242 185 194 214 279 261 281 256 229 223 211 162 205 178 196 3 271 320 314 291 231 211 203 222 219
311 321 318 307 287 296 319 339 346 2 35 180 254 84 82 279 175 206 238 224 247 258 240 245 164 153 236 356 305 286 256 244 219 232 182 200 139 160 277 335 290 255 224 197 207 230 217
309 318 319 318 308 280 278 300 318 345 6 38 314 70 43 274 225 288 260 235 237 264 265 238 234 194 141 50 337 331 328 341 296 234 213 182 140 292 261 254 290 295 225 177 193 275 209
308 309 313 323 314 302 266 257 274 293 327 25 267 120 104 98 259 320 294 249 214 228 320 238 31 116 97 143 146 224 250 242 271 323 28 97 125 166 316 241 256 254 257 184 105 288 223
293 306 308 310 308 305 295 252 237 242 244 160 289 137 109 244 266 219 218 206 180 177 238 253 184 71 71 150 189 206 240 202 220 186 170 128 196 217 232 269 282 252 220 182 334 246 194
267 287 302 308 298 287 290 277 235 218 212 156 270 202 171 247 272 241 249 219 222 168 179 248 29 323 92 193 194 238 208 229 218 169 176 170 164 197 191 229 267 172 91 180 222 319 268
261 267 283 295 292 289 285 280 257 216 201 165 244 296 129 196 260 290 244 239 226 201 150 250 211 163 205 167 244 276 273 246 189 239 163 224 191 182 189 214 244 213 217 228 226 239 257